{"data":{"norad_id":61543,"epoch":"2026-09-21T14:15:28.966464Z","epoch_age_seconds":97558,"freshness":"FRESH","line1":"1 61543U 24184M   26264.59408526 -.00001725  00000+0 -93893-5 0  9990","line2":"2 61543  53.1589 350.7209 0001133  73.6923 286.4219 15.69697152111181","mean_motion":15.69697152,"eccentricity":0.0001133,"inclination_deg":53.1589,"raan_deg":350.7209,"arg_perigee_deg":73.6923,"mean_anomaly_deg":286.4219,"bstar":-9.3893e-6,"rev_number":11118,"period_min":91.737441083157,"perigee_km":359.00011260006,"apogee_km":360.52692085715,"semimajor_km":6737.9005167286,"source":"CELESTRAK","updated_at":"2026-09-22T09:00:49.366427Z"}}